Toulouse, France

4:19 PM CEST on July 24, 2016 (GMT +0200)
Blagnac

Weather History for LFBO - January, 2014

Change the Weather History Date:

Monday, January 27, 2014

  Actual Average Record
Temperature  
Mean Temperature 42 °F -  
Max Temperature 46 °F 49 °F 60 °F (2002)
Min Temperature 39 °F 35 °F 21 °F (2007)
Degree Days  
Heating Degree Days 22    
Moisture  
Dew Point 40 °F    
Average Humidity 83    
Maximum Humidity 94    
Minimum Humidity 68    
Precipitation  
Precipitation 0.08 in 0.07 in - ()
Sea Level Pressure  
Sea Level Pressure 29.79 in    
Wind  
Wind Speed 15 mph ()    
Max Wind Speed 23 mph    
Max Gust Speed 36 mph    
Visibility 8.0 miles    
Events Rain    
Averages and records for this station are not official NWS values.
T = Trace of Precipitation, MM = Missing Value Source: Averaged Metar Reports

Daily Weather History Graph

Daily Weather History Graph

Search for Another Location

Airport or City:

Trip Planner

Search our weather history database for the weather conditions in past years. The results will help you decide how hot, cold, wet, or windy it might be!

Date:

Astronomy

Jan. 27, 2014 Rise Set
Actual Time 8:16 AM CET 5:58 PM CET
Civil Twilight 7:45 AM CET 6:29 PM CET
Nautical Twilight 7:10 AM CET 7:04 PM CET
Astronomical Twilight 6:36 AM CET 7:38 PM CET
Moon 4:42 AM CET (1/27) 2:28 PM CET (1/27)
Length of Visible Light 10h 44m
Length of Day
9h 42m
Waning Crescent, 17% of the Moon is Illuminated
Jan 27
Waning Crescent
Jan 30
New
Feb 6
First Quarter
Feb 15
Full
Feb 22
Last Quarter

Hourly Weather History & Observations

Time (CET) Temp. Windchill Dew Point Humidity Pressure Visibility Wind Dir Wind Speed Gust Speed Precip Events Conditions
12:00 AM 53 °F - 51 °F 90% 29.83 in 7 mi West 18.4 mph - - Rain Light Rain
12:00 AM 53.6 °F - 51.8 °F 94% 29.83 in 6.2 mi West 18.4 mph - N/A Rain Light Rain
12:30 AM 53.6 °F - 48.2 °F 82% 29.83 in 6.2 mi WNW 21.9 mph - N/A   Mostly Cloudy
1:00 AM 52 °F - 46 °F 75% 29.84 in 37 mi WNW 17.3 mph - -   Clear
1:00 AM 51.8 °F - 46.4 °F 82% 29.83 in 6.2 mi WNW 17.3 mph - N/A   Mostly Cloudy
1:30 AM 50.0 °F - 44.6 °F 82% 29.83 in 6.2 mi WNW 21.9 mph - N/A   Mostly Cloudy
2:00 AM 50 °F - 45 °F 78% 29.85 in 16 mi WNW 15.0 mph - -   Clear
2:00 AM 50.0 °F - 44.6 °F 82% 29.83 in 6.2 mi WNW 15.0 mph - N/A   Mostly Cloudy
2:30 AM 50.0 °F - 44.6 °F 82% 29.83 in 6.2 mi WNW 15.0 mph - N/A   Mostly Cloudy
3:00 AM 49 °F - 44 °F 78% 29.87 in 6 mi West 21.9 mph - - Rain Light Rain
3:00 AM 50.0 °F - 44.6 °F 82% 29.86 in 6.2 mi West 21.9 mph - N/A Rain Light Rain
3:30 AM 48.2 °F - 44.6 °F 87% 29.86 in 6.2 mi WNW 21.9 mph - N/A Rain Light Rain
4:00 AM 46 °F - 41 °F 78% 29.89 in 8 mi WNW 23.0 mph - - Rain Light Rain
4:00 AM 46.4 °F 38.3 °F 41.0 °F 81% 29.86 in 6.2 mi WNW 23.0 mph 35.7 mph N/A Rain Light Rain
4:30 AM 46.4 °F 39.8 °F 41.0 °F 81% 29.86 in 6.2 mi WNW 16.1 mph - N/A   Mostly Cloudy
5:00 AM 46 °F - 41 °F 78% 29.88 in 22 mi West 13.8 mph - -   Clear
5:00 AM 46.4 °F 40.4 °F 41.0 °F 81% 29.86 in 6.2 mi West 13.8 mph - N/A   Mostly Cloudy
5:30 AM 44.6 °F 38.8 °F 41.0 °F 87% 29.86 in 6.2 mi West 11.5 mph - N/A   Mostly Cloudy
6:00 AM 46 °F - 41 °F 76% 29.88 in 19 mi West 13.8 mph - -   Clear
6:00 AM 46.4 °F 40.4 °F 41.0 °F 81% 29.86 in 6.2 mi West 13.8 mph - N/A   Mostly Cloudy
6:30 AM 46.4 °F 40.7 °F 41.0 °F 81% 29.86 in 6.2 mi West 12.7 mph - N/A   Overcast
7:00 AM 46 °F - 40 °F 73% 29.87 in 9 mi West 12.7 mph - -   Mostly Cloudy
7:00 AM 46.4 °F 40.7 °F 41.0 °F 81% 29.86 in 6.2 mi West 12.7 mph - N/A   Mostly Cloudy
7:30 AM 46.4 °F 40.7 °F 39.2 °F 76% 29.86 in 6.2 mi West 12.7 mph - N/A   Mostly Cloudy
8:00 AM 45 °F - 41 °F 79% 29.87 in 12 mi WNW 15.0 mph - - Rain Light Rain Showers
8:00 AM 44.6 °F 37.8 °F 41.0 °F 87% 29.86 in 6.2 mi WNW 15.0 mph - N/A Rain Light Rain
8:30 AM 44.6 °F 38.4 °F 39.2 °F 81% 29.83 in 6.2 mi West 12.7 mph - N/A   Overcast
9:00 AM 43 °F - 39 °F 81% 29.86 in 19 mi West 10.4 mph - -   Clear
9:00 AM 42.8 °F 37.0 °F 39.2 °F 87% 29.83 in 6.2 mi West 10.4 mph - N/A   Unknown
9:30 AM 42.8 °F 37.5 °F 39.2 °F 87% 29.83 in 6.2 mi WSW 9.2 mph - N/A   Mostly Cloudy
10:00 AM 45 °F - 40 °F 76% 29.85 in 19 mi SW 10.4 mph - -   Clear
10:00 AM 44.6 °F 39.2 °F 39.2 °F 81% 29.83 in 6.2 mi SW 10.4 mph - N/A   Mostly Cloudy
10:30 AM 46.4 °F 41.5 °F 41.0 °F 81% 29.80 in 6.2 mi WSW 10.4 mph - N/A   Mostly Cloudy
11:00 AM 46 °F - 40 °F 73% 29.83 in 25 mi West 12.7 mph - -   Mostly Cloudy
11:00 AM 46.4 °F 40.7 °F 41.0 °F 81% 29.80 in 6.2 mi West 12.7 mph - N/A   Mostly Cloudy
11:30 AM 46.4 °F 39.5 °F 39.2 °F 76% 29.80 in 6.2 mi West 17.3 mph - N/A   Mostly Cloudy
12:00 PM 46 °F - 40 °F 72% 29.82 in 19 mi West 13.8 mph - - Rain Light Rain Showers
12:00 PM 46.4 °F 40.4 °F 39.2 °F 76% 29.80 in 6.2 mi West 13.8 mph - N/A   Mostly Cloudy
12:30 PM 46.4 °F 39.8 °F 41.0 °F 81% 29.77 in 6.2 mi West 16.1 mph - N/A   Mostly Cloudy
1:00 PM 46 °F - 39 °F 68% 29.79 in 19 mi West 17.3 mph - -   Clear
1:00 PM 46.4 °F 39.5 °F 39.2 °F 76% 29.77 in 6.2 mi West 17.3 mph - N/A   Mostly Cloudy
1:30 PM 46.4 °F 39.5 °F 39.2 °F 76% 29.77 in 6.2 mi West 17.3 mph - N/A   Overcast
2:00 PM 44 °F - 38 °F 72% 29.77 in 19 mi West 16.1 mph - -   Mostly Cloudy
2:00 PM 44.6 °F 37.4 °F 37.4 °F 76% 29.74 in 6.2 mi West 16.1 mph - N/A   Mostly Cloudy
2:30 PM 44.6 °F 37.8 °F 37.4 °F 76% 29.74 in 6.2 mi West 15.0 mph - N/A   Mostly Cloudy
3:00 PM 42 °F - 38 °F 80% 29.77 in 9 mi West 21.9 mph - - Rain Light Rain Showers
3:00 PM 42.8 °F 33.8 °F 37.4 °F 81% 29.74 in 6.2 mi West 21.9 mph - N/A Rain Light Rain
3:30 PM 41.0 °F 32.5 °F 37.4 °F 87% 29.74 in 6.2 mi West 17.3 mph - N/A Rain Light Rain
4:00 PM 41 °F - 38 °F 83% 29.76 in 9 mi West 13.8 mph - - Rain Light Rain Showers
4:00 PM 41.0 °F 33.5 °F 37.4 °F 87% 29.74 in 6.2 mi West 13.8 mph - N/A   Mostly Cloudy
4:30 PM 41.0 °F 34.3 °F 39.2 °F 93% 29.74 in 6.2 mi WSW 11.5 mph - N/A Rain Light Rain
5:00 PM 42 °F - 38 °F 83% 29.76 in 9 mi West 13.8 mph - - Rain Light Rain Showers
5:00 PM 41.0 °F 33.5 °F 39.2 °F 93% 29.74 in 6.2 mi West 13.8 mph - N/A Rain Light Rain
5:30 PM 41.0 °F 34.7 °F 37.4 °F 87% 29.71 in 6.2 mi WSW 10.4 mph - N/A   Mostly Cloudy
6:00 PM 41 °F - 38 °F 85% 29.75 in 11 mi WSW 16.1 mph - - Rain Light Rain Showers
6:00 PM 41.0 °F 32.8 °F 37.4 °F 87% 29.71 in 6.2 mi WSW 16.1 mph - N/A Rain Light Rain
6:30 PM 41.0 °F 33.9 °F 37.4 °F 87% 29.71 in 6.2 mi WSW 12.7 mph - N/A Rain Light Rain
7:00 PM 41 °F - 36 °F 78% 29.75 in 12 mi West 16.1 mph - -   Clear
7:00 PM 41.0 °F 32.8 °F 37.4 °F 87% 29.71 in 6.2 mi West 16.1 mph - N/A   Mostly Cloudy
7:30 PM 41.0 °F 33.9 °F 37.4 °F 87% 29.71 in 6.2 mi WSW 12.7 mph - N/A Rain Light Rain
8:00 PM 40 °F - 37 °F 85% 29.74 in 34 mi SW 15.0 mph - -   Clear
8:00 PM 41.0 °F 33.1 °F 37.4 °F 87% 29.71 in 6.2 mi SW 15.0 mph - N/A   Mostly Cloudy
8:30 PM 39.2 °F 30.5 °F 37.4 °F 93% 29.71 in 6.2 mi WSW 16.1 mph - N/A Rain Light Rain
9:00 PM 40 °F - 36 °F 82% 29.74 in 31 mi WSW 13.8 mph - -   Clear
9:00 PM 39.2 °F 31.2 °F 37.4 °F 93% 29.71 in 6.2 mi WSW 13.8 mph - N/A   Mostly Cloudy
9:30 PM 39.2 °F 30.8 °F 37.4 °F 93% 29.71 in 6.2 mi West 15.0 mph - N/A Rain Light Rain
10:00 PM 39 °F - 36 °F 86% 29.75 in 6 mi West 12.7 mph - - Rain Rain
10:00 PM 39.2 °F 31.6 °F 35.6 °F 87% 29.71 in 6.2 mi West 12.7 mph - N/A Rain Rain
10:30 PM 39.2 °F 32.5 °F 37.4 °F 93% 29.71 in 6.2 mi WSW 10.4 mph - N/A   Overcast
11:00 PM 40 °F - 36 °F 82% 29.74 in 37 mi WSW 12.7 mph - -   Clear
11:00 PM 39.2 °F 31.6 °F 37.4 °F 93% 29.71 in 6.2 mi WSW 12.7 mph - N/A   Overcast
11:30 PM 39.2 °F 31.2 °F 37.4 °F 93% 29.71 in 6.2 mi WSW 13.8 mph - N/A   Overcast